Location: Bailey Volunteer Fire Department
(33.4359°N, 96.1680°W)
Time: 17:58:46
(UTC+00:00)

Landsat 7 - Pass Details

Date: 13 December 2025
Orbit: 680 x 682 km, 97.9° (Epoch: 14 January)

Event Time Altitude Azimuth Distance (km) Brightness Sun altitude
Rises 23:46:44 0° 156° (SSE) 3,027 7.1 -6.2°
Reaches altitude 10° 23:49:00 10° 151° (SSE) 2,116 6.3 -6.7°
Maximum altitude 23:53:30 54° 75° (ENE) 829 3.9 -7.5°
Drops below altitude 10° 23:58:02 10° 358° (N) 2,128 6.1 -8.4°
Sets 00:00:19 0° 354° (N) 3,047 6.9 -8.9°
